Wind_Speed
13 17 12 3 1 1 3 6 5 5 4 3 7 5 3 4 2 3 12 17 27 26 22 18 18 17 16 14 14 15 15 14 14 13 14 14 15 14 13 13 13 11 11 10 11 10 11 11 11
23 17 6 2 0 4 3 7 13 12 9 9 11 9 7 5 8 13 17 27 29 27 23 20 19 18 16 15 14 14 14 12 12 12 11 12 12 12 12 13 12 12 10 11 9 9 9 8 9
26 17 3 3 1 6 9 12 11 12 12 11 9 7 4 5 12 19 20 30 28 25 22 20 20 18 16 14 13 13 12 11 10 10 10 9 10 9 9 9 9 11 10 9 10 8 6 8 8
12 6 2 2 4 0 14 14 17 15 13 11 10 6 7 19 19 17 34 32 28 26 23 21 19 18 16 14 13 12 12 11 10 9 9 8 7 6 5 5 5 7 8 8 9 8 8 7 7
3 3 3 3 5 2 7 15 17 16 10 14 14 10 5 7 28 37 36 31 30 27 23 21 19 17 16 15 14 13 12 11 9 9 9 8 8 5 3 5 4 5 6 6 8 8 6 7 7
4 2 4 4 5 4 4 14 16 14 14 14 11 7 4 23 34 29 32 30 28 30 26 22 19 18 16 15 14 13 13 11 9 8 8 7 7 6 5 2 5 4 4 4 5 6 6 5 6
4 3 2 4 2 10 7 14 13 16 16 9 10 9 7 16 27 31 32 28 28 26 25 23 21 19 17 15 14 13 11 10 8 7 7 7 7 7 7 5 3 4 5 5 4 4 5 5 5
5 3 5 3 4 4 3 4 15 16 6 16 19 7 8 16 28 30 29 26 26 25 25 23 21 19 17 16 14 14 13 11 10 9 7 7 7 7 7 7 7 5 4 5 5 4 5 6 5
3 4 2 4 3 3 7 8 11 8 17 7 6 12 14 32 28 26 23 22 24 22 23 22 21 19 16 14 13 12 12 11 10 10 9 8 8 8 7 6 7 6 5 5 5 5 6 6 7
4 4 5 9 6 6 9 9 5 7 8 11 14 15 23 30 28 23 20 19 20 23 23 21 20 19 17 16 13 13 13 13 11 10 9 8 7 6 5 5 6 6 6 6 5 4 5 5 6
5 6 8 8 13 16 5 3 2 4 5 13 20 20 18 22 21 23 23 29 31 26 22 21 20 18 17 16 13 13 14 14 14 11 9 6 9 9 8 5 8 7 7 7 6 6 5 5 7
5 9 8 5 13 11 9 4 8 8 9 12 14 17 16 13 16 19 22 24 24 26 23 21 19 18 16 15 15 13 14 14 15 13 12 9 9 8 9 11 9 7 7 8 8 9 7 6 9
4 12 9 14 19 19 10 8 5 6 17 18 15 15 12 10 16 22 27 28 30 29 25 23 22 20 14 18 17 16 16 17 17 14 16 15 14 12 8 6 10 9 11 10 8 6 8 4 9
4 15 19 4 17 19 16 8 5 3 18 19 20 16 14 14 19 17 21 22 31 31 28 25 24 19 15 14 10 13 12 13 14 12 13 18 19 12 11 9 9 8 11 12 11 10 9 12 10
5 7 7 19 9 4 5 6 3 10 15 20 21 16 14 11 21 19 22 28 30 32 29 27 25 20 16 13 9 6 6 10 10 14 16 18 15 13 11 8 6 7 9 11 11 13 14 16 10
7 6 5 6 9 9 4 6 7 7 15 15 15 14 12 10 19 24 24 28 29 30 28 27 24 21 13 9 5 7 9 7 4 9 12 16 12 11 9 6 4 5 8 11 13 16 16 13 12
6 1 4 5 7 6 7 7 6 9 8 5 7 6 8 9 11 25 25 27 30 30 27 26 23 19 13 9 4 5 7 3 6 7 11 15 14 10 8 6 4 5 7 11 14 16 13 8 8
6 3 5 3 9 5 7 10 6 9 10 11 7 7 5 6 15 26 28 27 28 28 27 26 22 18 13 9 3 2 5 6 6 6 6 6 11 13 11 8 6 7 9 10 11 13 10 13 11
4 3 4 5 5 2 7 6 10 8 13 12 12 14 13 11 17 25 31 29 30 28 30 25 23 19 15 11 5 2 2 7 5 6 5 3 5 8 10 9 7 5 6 7 5 9 12 16 14
7 3 7 4 6 3 9 15 8 13 18 13 18 14 14 15 13 17 26 30 31 32 29 27 23 18 15 11 7 4 4 5 6 3 2 1 3 5 6 7 5 3 3 1 1 6 8 8 8
6 8 5 9 4 4 3 7 5 4 11 10 10 14 16 20 15 15 19 25 28 31 32 29 23 17 15 12 9 7 5 7 7 6 2 4 3 3 3 2 3 2 1 2 1 3 4 6 7
5 13 11 16 3 7 7 6 6 4 11 13 12 12 14 7 10 12 15 20 25 30 32 27 21 18 15 13 10 8 9 7 5 6 6 5 7 5 5 7 5 2 0 1 1 2 4 8 10
9 9 13 9 6 6 5 2 6 3 6 11 13 16 13 10 13 15 17 26 25 28 31 26 20 18 14 13 8 6 9 3 7 7 7 8 9 9 7 3 2 3 3 2 2 2 1 1 5
5 4 8 6 5 2 5 5 4 7 19 6 6 16 17 14 14 10 10 16 22 26 30 22 16 16 15 12 9 8 6 4 10 7 6 6 11 10 5 6 5 6 6 7 7 5 5 5 3
7 7 3 4 5 5 3 1 8 5 7 9 14 16 14 18 13 13 9 10 18 23 27 19 19 17 14 13 8 5 6 6 3 4 5 11 17 10 9 7 8 6 8 6 5 5 6 4 1
5 8 6 5 3 6 3 5 3 5 6 6 5 11 15 14 14 16 13 17 20 20 23 20 20 17 12 11 8 5 2 4 9 10 10 12 11 9 11 8 10 11 9 9 7 5 4 3 4
8 1 6 7 1 4 4 6 6 5 5 11 14 11 14 14 17 17 10 19 23 24 22 21 20 16 12 12 11 8 2 1 8 11 11 11 11 9 11 9 6 9 8 8 8 11 10 8 9
9 5 0 3 3 4 5 4 5 3 4 20 15 13 13 26 29 4 7 18 21 25 20 23 19 19 15 14 11 7 6 5 9 10 12 12 11 12 11 8 5 7 7 7 7 11 9 10 11
1 2 4 5 5 5 3 6 6 5 5 12 13 12 19 11 27 22 10 20 23 26 25 23 20 21 19 17 13 11 8 12 14 12 13 12 12 11 9 7 7 7 6 7 7 9 9 10 12
6 7 6 5 7 2 4 5 7 6 7 5 10 16 22 23 25 16 15 21 24 26 28 26 22 22 20 17 15 12 18 12 12 10 10 12 11 9 10 9 11 11 12 10 11 10 9 10 12
Wind_Direction
173 175 182 220 285 262 342 51 110 69 60 318 103 117 107 28 131 172 146 166 156 154 154 152 152 153 151 147 143 143 143 137 132 127 121 121 115 111 111 117 119 118 113 113 112 114 119 121 118
161 155 173 253 321 86 24 89 82 100 114 107 94 109 68 77 88 118 118 151 155 151 154 152 154 157 156 151 149 149 146 141 137 130 124 123 122 120 110 122 122 118 117 121 122 119 122 124 126
160 151 161 181 188 112 100 117 123 133 137 121 103 95 80 107 126 139 152 154 151 148 149 152 155 157 157 154 151 151 151 150 146 140 131 125 126 128 130 121 113 114 124 126 129 121 134 133 135
157 167 258 31 287 216 121 124 124 107 104 96 107 77 106 137 143 148 150 150 149 148 150 153 154 155 157 155 155 157 159 159 155 149 139 134 131 130 141 133 130 129 125 132 132 130 139 141 143
28 73 55 310 320 110 114 129 118 108 84 96 107 105 71 79 133 143 150 154 150 153 153 154 156 157 153 154 158 160 166 168 165 158 152 148 149 159 164 142 133 144 152 142 145 151 137 149 157
42 73 47 354 321 103 72 113 115 108 110 104 96 93 78 129 136 149 155 154 155 156 156 157 159 159 159 160 160 163 168 171 171 166 164 162 162 162 159 137 134 148 155 164 158 152 161 178 167
108 82 183 316 308 95 109 128 127 128 133 130 126 119 136 132 145 148 155 157 157 157 156 159 160 162 163 163 167 170 172 176 176 177 172 174 175 168 160 167 166 175 168 164 178 180 183 194 186
124 83 358 38 28 36 55 56 138 148 106 134 140 154 177 152 148 149 154 151 156 161 163 161 161 165 165 169 173 175 178 182 185 180 183 188 181 182 184 183 186 196 189 179 174 191 197 208 215
129 58 97 331 82 346 101 82 48 81 137 178 206 151 146 145 143 140 139 149 158 166 168 165 168 169 170 172 178 185 188 188 189 191 189 196 195 194 199 207 200 190 199 198 186 178 204 220 231
106 121 220 189 105 75 37 35 44 91 100 103 111 140 143 145 147 149 154 162 174 175 175 173 172 172 175 173 182 192 198 199 197 197 200 205 203 194 206 214 210 215 206 210 205 194 201 234 253
190 172 186 227 125 113 119 270 176 92 131 153 152 162 163 150 157 156 169 173 183 182 179 181 180 180 185 183 189 200 204 205 207 204 207 210 218 230 216 222 189 200 202 196 213 213 216 230 250
244 215 175 139 135 133 184 170 164 158 188 160 160 162 163 159 167 172 174 183 179 183 186 187 187 187 196 195 204 206 211 216 215 205 202 212 224 207 206 200 188 209 209 201 212 221 226 240 251
337 291 300 132 156 168 161 204 190 163 154 154 156 162 172 163 178 186 185 191 184 185 191 190 189 190 194 205 215 214 225 231 231 213 219 219 210 210 222 189 198 194 207 215 226 223 254 257 253
220 272 274 287 160 169 170 188 177 137 142 158 159 173 177 172 182 192 196 183 183 190 190 192 195 194 195 212 220 214 225 236 232 215 203 218 213 221 225 196 203 206 224 241 250 259 280 279 253
243 255 350 132 139 141 149 345 314 157 160 169 172 175 182 188 179 190 192 189 185 191 189 190 196 199 205 220 237 240 281 260 256 234 231 225 211 208 214 213 207 224 240 249 260 260 278 299 263
339 43 93 191 157 187 109 233 227 190 162 179 171 175 182 184 184 194 190 192 184 184 190 187 189 190 202 222 214 288 317 305 264 231 205 187 192 213 218 219 225 243 254 261 267 270 289 288 261
7 326 351 339 171 158 219 262 214 166 170 68 83 74 181 186 190 192 194 190 186 183 188 186 189 194 204 206 220 320 342 357 98 143 180 188 200 215 224 227 293 254 248 262 268 282 271 267 250
244 238 263 237 305 155 169 248 256 184 125 113 178 127 155 207 195 187 191 188 189 187 189 188 187 194 197 191 186 28 43 104 122 137 167 203 218 220 225 241 264 273 268 276 285 257 265 270 272
191 269 314 282 193 75 276 289 201 175 152 153 186 178 184 215 212 183 184 186 184 183 179 186 187 189 196 180 174 198 106 128 140 144 145 166 185 204 216 235 254 282 283 275 271 237 270 258 271
188 227 282 276 278 341 300 282 229 163 180 184 187 187 191 196 209 180 177 180 183 181 181 183 192 199 199 196 192 187 154 161 148 147 137 138 189 195 215 228 219 243 277 271 340 249 252 255 270
207 189 225 239 338 256 5 350 315 147 186 201 227 192 187 193 181 189 181 177 179 177 187 192 195 200 197 190 187 183 167 155 163 166 158 145 152 145 157 163 208 179 222 285 279 255 242 249 249
221 213 207 251 109 246 112 272 277 253 209 222 211 207 184 188 191 189 174 174 184 182 191 196 195 189 190 197 181 198 196 177 173 154 148 132 122 140 139 142 142 156 113 305 0 294 261 250 251
235 174 213 221 220 70 305 102 270 67 248 242 241 207 192 195 192 189 188 179 185 180 188 196 193 188 182 188 198 168 175 199 167 157 149 139 130 132 111 69 43 66 74 70 73 61 34 261 255
218 335 34 44 121 52 243 166 258 187 224 214 173 200 207 196 200 173 171 168 171 175 181 194 187 172 179 186 192 200 201 204 198 167 156 155 147 133 102 94 82 58 67 55 52 36 31 19 354
70 57 341 344 355 221 251 349 237 267 237 199 184 204 207 184 149 137 144 155 156 160 174 180 165 167 170 170 174 199 219 215 152 156 169 146 138 130 116 109 81 68 86 86 81 55 43 27 353
233 146 159 202 202 257 328 272 269 300 325 149 111 155 147 136 145 163 173 146 158 152 173 156 154 154 148 156 159 173 215 185 167 129 123 127 112 117 107 106 72 73 87 87 85 89 92 75 34
254 198 198 125 88 68 267 291 324 342 7 59 119 123 147 154 164 174 152 147 147 160 153 153 153 158 161 155 153 140 86 23 138 141 133 109 109 105 95 86 66 75 81 83 81 84 83 76 53
166 174 49 2 204 250 296 272 237 317 17 87 81 91 64 12 320 263 159 146 147 154 160 155 161 164 159 153 155 145 93 72 111 120 106 113 121 103 98 98 92 83 87 86 81 86 76 65 58
220 223 75 126 143 159 184 267 297 227 261 106 108 97 85 350 268 279 155 141 140 147 152 165 163 163 156 157 155 147 116 116 120 113 115 115 109 105 111 117 102 88 90 92 79 65 64 71 66
173 228 139 129 265 153 153 253 302 304 1 95 109 145 166 171 237 278 152 129 139 146 152 161 166 161 156 152 150 143 134 134 129 122 120 125 120 123 129 125 115 99 95 91 74 69 70 82 69
Height
794 800 803 805 818 816 810 803 779 787 787 781 776 783 790 787 793 818 793 797 800 804 808 810 811 814 815 816 817 817 819 820 822 823 824 824 825 826 826 827 828 830 831 832 833 833 833 835 835
787 797 803 802 818 823 817 789 796 787 783 779 778 782 787 799 783 791 797 800 803 805 808 810 813 815 816 817 818 819 820 822 824 825 826 827 827 827 828 829 829 830 831 833 834 835 835 836 837
784 789 800 808 813 814 815 791 787 781 775 775 779 775 781 795 788 791 794 801 804 806 809 812 814 816 818 819 820 822 822 823 824 826 828 829 829 830 830 830 830 830 832 833 834 835 836 837 838
786 790 792 809 811 788 784 781 777 782 779 775 777 791 785 785 789 792 797 802 805 807 811 814 816 817 818 820 821 822 823 825 826 827 828 830 830 831 831 832 832 833 833 834 834 835 836 837 838
783 784 809 812 803 783 776 772 773 785 784 784 782 795 794 791 791 796 800 802 804 809 811 814 816 818 819 819 820 821 822 824 826 827 830 831 831 832 833 833 834 834 834 835 835 836 836 837 838
791 792 817 823 804 781 775 773 776 781 784 787 791 794 800 795 796 800 801 803 805 806 810 813 815 817 817 818 820 821 821 823 824 827 829 831 831 832 832 833 834 834 835 836 837 837 837 838 838
792 802 814 808 803 792 782 773 781 785 788 791 785 803 801 799 799 801 802 804 806 809 811 812 814 816 817 818 819 821 823 824 824 826 828 830 831 832 833 833 833 833 835 836 837 838 838 839 839
784 795 804 804 812 806 780 774 773 780 786 781 782 804 804 798 801 804 805 806 808 809 810 812 815 815 816 817 818 820 821 822 824 825 826 828 830 832 832 832 833 834 835 836 836 838 838 838 839
773 808 820 807 803 800 777 785 774 771 781 782 781 786 791 797 802 807 809 811 811 812 812 813 813 814 815 817 819 820 821 822 823 824 824 826 828 830 831 831 832 833 834 835 835 835 836 837 838
787 815 804 777 786 796 787 784 784 785 791 790 788 789 793 797 801 804 807 810 812 812 812 813 814 814 814 816 817 819 821 822 822 824 825 825 826 827 829 831 832 833 833 834 835 835 835 836 838
782 798 781 776 781 778 794 787 783 792 799 790 791 789 790 796 800 802 804 804 806 810 812 812 813 813 813 814 816 817 818 819 820 822 824 825 825 826 827 828 829 830 831 832 833 833 834 835 837
782 762 765 771 776 780 785 774 773 777 784 782 785 787 789 793 797 798 801 804 806 809 811 812 813 812 812 813 814 816 818 818 818 819 821 823 824 825 824 825 827 827 829 830 831 831 832 832 834
774 760 752 758 764 770 771 774 772 769 765 776 783 786 789 792 793 795 798 802 803 806 809 810 811 811 811 812 812 814 815 816 816 816 819 821 823 824 823 823 825 826 827 828 828 829 829 829 830
765 758 753 749 765 769 776 774 767 772 768 775 777 782 785 786 788 792 797 801 801 802 804 808 809 809 810 811 812 813 814 813 813 814 817 818 821 822 822 823 824 824 824 826 826 826 827 826 826
763 774 761 759 771 778 774 789 784 769 773 774 775 780 782 786 785 788 792 796 797 799 802 805 808 808 809 808 810 811 813 811 812 812 814 816 818 819 820 821 822 822 822 823 822 823 823 822 821
774 779 806 777 774 775 774 806 778 773 773 778 778 777 783 784 785 787 791 794 797 797 801 804 807 808 807 809 809 810 808 808 808 809 811 812 815 817 818 820 821 821 819 820 820 818 818 816 815
795 810 793 781 763 766 779 785 770 774 773 792 788 783 781 781 782 783 788 791 794 795 798 802 805 808 807 806 808 810 808 806 806 808 810 812 814 816 817 818 820 819 819 818 817 816 816 815 815
813 804 791 788 759 761 781 783 768 767 772 787 786 780 775 778 778 777 784 787 791 793 796 800 803 805 806 807 808 809 809 808 807 809 811 813 814 815 816 816 817 817 817 816 815 814 814 813 814
788 789 782 768 755 763 770 772 769 763 770 779 779 767 764 774 775 774 780 785 789 791 794 798 801 803 804 806 808 808 808 809 810 811 812 813 813 814 815 816 815 815 815 815 814 814 813 813 814
784 789 787 765 751 762 767 768 760 759 760 762 764 765 767 772 776 773 776 781 784 788 792 796 797 799 802 806 807 807 807 809 811 812 812 812 813 813 814 815 815 816 815 815 814 814 814 813 813
784 792 784 778 758 755 767 788 774 761 756 757 756 757 762 766 769 772 773 776 782 786 789 791 793 796 800 804 807 807 807 807 811 812 811 812 814 814 815 815 815 815 814 814 814 814 813 812 811
798 764 764 768 784 809 771 827 786 777 768 762 757 759 762 765 765 769 768 773 778 783 786 792 793 797 799 801 805 808 807 808 808 810 811 811 813 814 814 815 815 814 812 811 811 810 810 810 809
773 757 765 770 784 798 789 815 798 775 782 768 755 756 758 758 760 762 761 763 774 780 787 791 793 796 798 801 805 807 808 808 807 808 810 811 813 814 814 814 813 812 811 810 809 809 810 809 808
738 750 772 782 802 827 797 804 802 791 763 760 757 752 749 752 755 761 768 768 772 778 783 787 795 795 797 801 803 805 807 807 806 807 808 809 811 812 813 813 813 812 809 807 806 806 806 807 807
756 793 832 826 835 832 790 794 786 759 748 743 750 745 740 744 754 758 764 768 773 779 783 786 793 796 798 800 803 805 806 806 806 806 806 804 805 811 811 813 812 812 811 810 809 808 808 808 808
763 789 831 836 844 825 790 801 779 757 741 729 731 730 737 747 751 754 753 758 768 779 782 789 792 796 798 800 802 803 803 804 805 805 805 805 806 809 809 812 812 812 811 810 809 808 807 807 806
766 783 774 809 812 827 812 783 766 752 748 741 739 750 748 749 750 750 754 757 765 772 789 789 790 795 797 798 800 802 803 804 804 804 807 808 810 810 808 811 813 811 811 810 809 806 805 805 803
749 750 789 813 819 831 820 797 798 766 760 758 762 765 779 781 791 760 756 756 766 773 787 788 788 792 795 796 799 801 803 803 804 805 806 809 812 810 810 813 812 811 811 810 809 807 806 804 802
758 768 779 792 811 829 839 816 786 781 767 765 771 775 769 808 798 791 753 762 771 776 778 786 790 792 792 795 797 798 801 804 805 806 807 810 812 812 813 814 814 814 813 812 810 808 807 805 804
742 759 776 809 804 812 814 812 781 778 773 762 756 757 756 763 770 775 757 768 766 772 773 781 786 789 791 794 797 798 800 805 806 807 808 809 812 814 815 815 815 815 815 815 812 809 808 807 807